NOAA 1 1 04793U 70106A 22146.21828970 -.00000051 00000-0 -47138-4 0 9994 2 04793 101.5569 210.5852 0031447 6.6002 27.2907 12.54004962354808 NOAA 2 (ITOS-D) 1 06235U 72082A 22146.52053921 -.00000021 00000-0 16069-3 0 9996 2 06235 101.9513 128.6187 0004449 113.1111 2.4923 12.53146984269225 NOAA 3 1 06920U 73086A 22146.53996726 -.00000041 00000-0 37787-4 0 9995 2 06920 102.2052 128.0087 0006401 335.5836 139.5031 12.40348090198079 NOAA 4 1 07529U 74089A 22146.49958025 -.00000035 00000-0 71000-4 0 9999 2 07529 101.9113 126.0732 0009194 143.1950 330.2885 12.53157549173796 NOAA 5 1 09057U 76077A 22146.50581976 -.00000045 00000-0 -40236-6 0 9996 2 09057 102.0964 114.7294 0009689 176.8557 298.6218 12.37770353 71028 TIROS N 1 11060U 78096A 22146.12611673 .00000164 00000-0 10001-3 0 9996 2 11060 98.6366 200.4600 0010194 201.7912 158.2832 14.18384629468448 NOAA 6 1 11416U 79057A 22145.65226680 .00000330 00000-0 13495-3 0 9991 2 11416 98.6642 156.4716 0009700 332.3626 27.7042 14.33752304238255 NOAA 7 1 12553U 81059A 22145.71096693 .00000064 00000-0 54429-4 0 9992 2 12553 99.0006 189.8433 0011598 175.5031 184.6250 14.17329962114572 NOAA 8 1 13923U 83022A 22146.50765204 .00000145 00000-0 75292-4 0 9996 2 13923 98.6856 137.1383 0013933 274.3813 85.5776 14.28805021 39275 NOAA 9 1 15427U 84123A 22146.55940566 .00000129 00000-0 88356-4 0 9998 2 15427 99.0436 118.6023 0014019 225.0535 246.0920 14.16198503933747 NOAA 10 1 16969U 86073A 22146.53375894 .00000134 00000-0 71075-4 0 9996 2 16969 98.5665 133.0938 0012657 22.2328 89.7353 14.28197336857705 NOAA 11 1 19531U 88089A 22146.49746649 .00000078 00000-0 61091-4 0 9992 2 19531 98.4229 136.7874 0010088 239.0137 121.0047 14.15308605737716 NOAA 12 1 21263U 91032A 22146.53022188 .00000120 00000-0 67949-4 0 9995 2 21263 98.5135 146.9687 0014555 47.2658 312.9744 14.25991152613605 NOAA 13 1 22739U 93050A 22145.57187766 .00000142 00000-0 98627-4 0 9994 2 22739 98.5029 126.5149 0010476 52.8792 307.3336 14.12839940483828 NOAA 14 1 23455U 94089A 22146.48040294 .00000047 00000-0 45968-4 0 9992 2 23455 98.4491 174.3681 0010091 34.1995 325.9828 14.14195704413605 NOAA 15 1 25338U 98030A 22146.53014502 .00000224 00000-0 11200-3 0 9991 2 25338 98.6453 176.3509 0010395 8.6977 351.4382 14.26129921249899 NOAA 16 1 26536U 00055A 22146.38007511 .00000098 00000-0 74770-4 0 9998 2 26536 98.6376 206.0414 0009715 223.9396 136.1005 14.13326209414237 NOAA 17 1 27453U 02032A 22146.52742226 .00000089 00000-0 56672-4 0 9990 2 27453 98.6707 92.0446 0011486 341.4188 18.6571 14.25118951 35737 NOAA 18 1 28654U 05018A 22146.53413395 .00000169 00000-0 11488-3 0 9998 2 28654 98.9495 216.9868 0014780 37.8208 322.3999 14.12733565876970 NOAA 19 1 33591U 09005A 22146.53285973 .00000199 00000-0 13289-3 0 9997 2 33591 99.1493 180.2075 0012936 247.7508 112.2291 14.12568626685092 NPP 1 37849U 11061A 22146.56929767 .00000069 00000-0 53543-4 0 9995 2 37849 98.7320 85.4256 0001347 78.7987 25.4499 14.19567195548089